• In Czech Republic
  • List of Countries
  • For 7 days
  • Water Temperature
  • Satellite Maps
  • Weather Map
  • Weather Widgets
  • user-avatar
    Login

    Hourly Weather Kensington

    Today, 25 September, Tuesday

    Time Temperature Precipitation Wind Pressure Humidity
    00:00 +8°C° 0 mm 2 mps 776 mmHg 52%
    01:00 +8°C° 0 mm 2 mps 776 mmHg 54%
    02:00 +8°C° 0 mm 2 mps 776 mmHg 58%
    03:00 +7°C° 0 mm 2 mps 776 mmHg 61%
    04:00 +7°C° 0 mm 2 mps 776 mmHg 63%
    05:00 +7°C° 0 mm 2 mps 776 mmHg 66%
    06:00 +8°C° 0 mm 2 mps 776 mmHg 65%
    07:00 +8°C° 0 mm 2 mps 776 mmHg 63%
    08:00 +9°C° 0 mm 2 mps 776 mmHg 62%
    09:00 +10°C° 0 mm 2 mps 776 mmHg 57%
    10:00 +11°C° 0 mm 3 mps 776 mmHg 51%
    11:00 +12°C° 0 mm 3 mps 776 mmHg 46%
    12:00 +12°C° 0 mm 4 mps 775 mmHg 44%
    13:00 +13°C° 0 mm 4 mps 775 mmHg 43%
    14:00 +13°C° 0 mm 5 mps 774 mmHg 41%
    15:00 +13°C° 0 mm 5 mps 774 mmHg 43%
    16:00 +13°C° 0 mm 5 mps 773 mmHg 44%
    17:00 +13°C° 0 mm 6 mps 772 mmHg 46%
    18:00 +12°C° 0 mm 7 mps 772 mmHg 50%
    19:00 +12°C° 0 mm 8 mps 771 mmHg 53%
    20:00 +12°C° 0 mm 9 mps 771 mmHg 57%
    21:00 +12°C° 0 mm 9 mps 771 mmHg 59%
    22:00 +12°C° 0 mm 9 mps 770 mmHg 61%
    23:00 +12°C° 0 mm 9 mps 770 mmHg 63%

    Tomorrow, 26 September, Wednesday

    Time Temperature Precipitation Wind Pressure Humidity
    00:00 +12°C° 0.1 mm 10 mps 770 mmHg 68%
    01:00 +12°C° 0.1 mm 10 mps 769 mmHg 74%
    02:00 +12°C° 0.1 mm 10 mps 768 mmHg 80%
    03:00 +12°C° 0.4 mm 11 mps 767 mmHg 82%
    04:00 +12°C° 0.4 mm 11 mps 767 mmHg 85%
    05:00 +12°C° 0.4 mm 11 mps 766 mmHg 88%
    06:00 +12°C° 0.3 mm 12 mps 765 mmHg 88%
    07:00 +13°C° 0.3 mm 12 mps 764 mmHg 87%
    08:00 +14°C° 0.3 mm 12 mps 764 mmHg 87%
    09:00 +14°C° 0.2 mm 12 mps 763 mmHg 87%
    10:00 +15°C° 0.2 mm 12 mps 762 mmHg 88%
    11:00 +16°C° 0.2 mm 11 mps 761 mmHg 88%
    12:00 +17°C° 0 mm 11 mps 760 mmHg 87%
    13:00 +18°C° 0 mm 11 mps 760 mmHg 87%
    14:00 +19°C° 0 mm 10 mps 759 mmHg 86%
    15:00 +19°C° 0 mm 10 mps 758 mmHg 86%
    16:00 +21°C° 0 mm 10 mps 758 mmHg 85%
    17:00 +21°C° 0 mm 10 mps 757 mmHg 85%
    18:00 +21°C° 0 mm 10 mps 757 mmHg 85%
    19:00 +21°C° 0 mm 10 mps 756 mmHg 85%
    20:00 +21°C° 0 mm 10 mps 756 mmHg 85%
    21:00 +21°C° 0 mm 11 mps 755 mmHg 84%
    22:00 +22°C° 0 mm 11 mps 754 mmHg 83%
    23:00 +22°C° 0 mm 11 mps 754 mmHg 82%

    Day after tomorrow, 27 September, Thursday

    Time Temperature Precipitation Wind Pressure Humidity
    00:00 +22°C° 0.2 mm 11 mps 753 mmHg 84%
    01:00 +21°C° 0.2 mm 12 mps 753 mmHg 86%
    02:00 +21°C° 0.2 mm 12 mps 753 mmHg 88%
    03:00 +18°C° 0.9 mm 11 mps 754 mmHg 87%
    04:00 +17°C° 0.9 mm 10 mps 755 mmHg 86%
    05:00 +15°C° 0.9 mm 9 mps 755 mmHg 85%
    06:00 +13°C° 0.6 mm 9 mps 757 mmHg 81%
    07:00 +12°C° 0.6 mm 8 mps 758 mmHg 77%
    08:00 +11°C° 0.6 mm 8 mps 759 mmHg 73%
    09:00 +11°C° 0 mm 8 mps 760 mmHg 71%
    10:00 +11°C° 0 mm 7 mps 761 mmHg 68%
    11:00 +11°C° 0 mm 7 mps 762 mmHg 66%
    12:00 +13°C° 0 mm 6 mps 762 mmHg 64%
    13:00 +13°C° 0 mm 6 mps 762 mmHg 61%
    14:00 +14°C° 0 mm 5 mps 763 mmHg 59%
    15:00 +13°C° 0 mm 5 mps 763 mmHg 59%
    16:00 +13°C° 0 mm 4 mps 764 mmHg 59%
    17:00 +13°C° 0 mm 4 mps 764 mmHg 60%
    18:00 +12°C° 0 mm 3 mps 765 mmHg 63%
    19:00 +11°C° 0 mm 3 mps 765 mmHg 65%
    20:00 +11°C° 0 mm 3 mps 766 mmHg 68%
    21:00 +11°C° 0 mm 3 mps 766 mmHg 70%
    22:00 +11°C° 0 mm 3 mps 766 mmHg 71%
    23:00 +11°C° 0 mm 3 mps 766 mmHg 72%

    28 September, Friday

    Time Temperature Precipitation Wind Pressure Humidity
    00:00 +11°C° 0 mm 3 mps 766 mmHg 72%
    01:00 +11°C° 0 mm 3 mps 767 mmHg 72%
    02:00 +11°C° 0 mm 4 mps 767 mmHg 72%
    03:00 +11°C° 0 mm 4 mps 767 mmHg 71%
    04:00 +11°C° 0 mm 4 mps 767 mmHg 70%
    05:00 +12°C° 0 mm 4 mps 767 mmHg 70%
    06:00 +12°C° 0 mm 4 mps 767 mmHg 71%
    07:00 +12°C° 0 mm 4 mps 767 mmHg 72%
    08:00 +13°C° 0 mm 4 mps 767 mmHg 73%
    09:00 +14°C° 0 mm 3 mps 766 mmHg 72%
    10:00 +14°C° 0 mm 3 mps 766 mmHg 70%
    11:00 +16°C° 0 mm 3 mps 765 mmHg 69%
    12:00 +16°C° 0 mm 2 mps 764 mmHg 67%
    13:00 +17°C° 0 mm 2 mps 764 mmHg 64%
    14:00 +17°C° 0 mm 2 mps 763 mmHg 62%
    15:00 +17°C° 0 mm 2 mps 763 mmHg 65%
    16:00 +16°C° 0 mm 2 mps 762 mmHg 68%
    17:00 +15°C° 0 mm 2 mps 762 mmHg 70%
    18:00 +15°C° 0 mm 2 mps 762 mmHg 74%
    19:00 +14°C° 0 mm 2 mps 762 mmHg 77%
    20:00 +13°C° 0 mm 1 mps 762 mmHg 80%
    21:00 +13°C° 0 mm 2 mps 761 mmHg 80%
    22:00 +13°C° 0 mm 2 mps 761 mmHg 79%
    23:00 +13°C° 0 mm 2 mps 760 mmHg 79%

    29 September, Saturday

    Time Temperature Precipitation Wind Pressure Humidity
    00:00 +12°C° 0 mm 3 mps 760 mmHg 79%
    01:00 +12°C° 0 mm 4 mps 759 mmHg 79%
    02:00 +12°C° 0 mm 4 mps 759 mmHg 79%
    03:00 +11°C° 0 mm 4 mps 759 mmHg 76%
    04:00 +10°C° 0 mm 5 mps 759 mmHg 74%
    05:00 +10°C° 0 mm 5 mps 758 mmHg 71%
    06:00 +10°C° 0 mm 5 mps 758 mmHg 73%
    07:00 +11°C° 0 mm 6 mps 758 mmHg 75%
    08:00 +13°C° 0 mm 6 mps 758 mmHg 77%
    09:00 +14°C° 0 mm 6 mps 758 mmHg 75%
    10:00 +15°C° 0 mm 6 mps 758 mmHg 74%
    11:00 +16°C° 0 mm 6 mps 757 mmHg 72%
    12:00 +17°C° 0 mm 6 mps 757 mmHg 68%
    13:00 +17°C° 0 mm 6 mps 757 mmHg 65%
    14:00 +19°C° 0 mm 6 mps 757 mmHg 61%
    15:00 +17°C° 0 mm 6 mps 757 mmHg 60%
    16:00 +16°C° 0 mm 5 mps 757 mmHg 60%
    17:00 +16°C° 0 mm 5 mps 758 mmHg 59%
    18:00 +15°C° 0 mm 5 mps 758 mmHg 63%
    19:00 +14°C° 0 mm 5 mps 759 mmHg 68%
    20:00 +13°C° 0 mm 5 mps 759 mmHg 72%
    21:00 +11°C° 0 mm 6 mps 760 mmHg 68%
    22:00 +11°C° 0 mm 6 mps 760 mmHg 64%
    23:00 +11°C° 0 mm 7 mps 760 mmHg 59%

    30 September, Sunday

    Time Temperature Precipitation Wind Pressure Humidity
    00:00 +10°C° 0 mm 7 mps 761 mmHg 62%
    01:00 +10°C° 0 mm 6 mps 761 mmHg 64%
    02:00 +9°C° 0 mm 6 mps 761 mmHg 67%
    03:00 +9°C° 0 mm 6 mps 762 mmHg 67%
    04:00 +8°C° 0 mm 5 mps 762 mmHg 67%
    05:00 +8°C° 0 mm 5 mps 762 mmHg 68%
    06:00 +8°C° 0 mm 5 mps 762 mmHg 66%
    07:00 +8°C° 0 mm 5 mps 763 mmHg 65%
    08:00 +8°C° 0 mm 5 mps 763 mmHg 63%
    09:00 +9°C° 0 mm 5 mps 763 mmHg 59%
    10:00 +10°C° 0 mm 5 mps 763 mmHg 55%
    11:00 +10°C° 0 mm 5 mps 763 mmHg 52%
    12:00 +12°C° 0 mm 4 mps 763 mmHg 49%
    13:00 +12°C° 0 mm 4 mps 763 mmHg 46%
    14:00 +13°C° 0 mm 4 mps 762 mmHg 43%
    15:00 +13°C° 0 mm 3 mps 762 mmHg 44%
    16:00 +13°C° 0 mm 2 mps 762 mmHg 45%
    17:00 +13°C° 0 mm 1 mps 762 mmHg 47%
    18:00 +13°C° 0 mm 2 mps 762 mmHg 50%
    19:00 +11°C° 0 mm 3 mps 762 mmHg 53%
    20:00 +10°C° 0 mm 4 mps 763 mmHg 55%
    21:00 +10°C° 0 mm 5 mps 762 mmHg 59%
    22:00 +10°C° 0 mm 5 mps 762 mmHg 64%
    23:00 +10°C° 0 mm 6 mps 762 mmHg 68%
    Show more